Voltar ao catálogo

STARLINK-35083

AtivoComunicaçõesSSO
NORAD 65390·PAYLOAD·🇺🇸 United States

Lançado Aug 30, 2025 de Vandenberg Space Force Base

Loading…

Próximas Passagens (próximas 24 horas)

TLE

AtualizadoSource: CelesTrak SupGP

Época: Sep 14, 2026, 22:59 UTC

1 65390C 25191M   26257.95812500  .00070415  00000+0  21864-2 0  2579
2 65390  97.2845 124.0609 0001656  95.9644 105.3501 15.33394722    12

Acompanhe STARLINK-35083 em tempo real com AllMySat

Download on the App Store